Alabaster, AL

9:50 PM CDT on October 18, 2019 (GMT -0500)
Shelby County

Weather History for KEET - August, 2019

Change the Weather History Date:

Thursday, August 8, 2019

  Actual Average Record
Temperature  
Mean Temperature 83 °F 81 °F  
Max Temperature 95 °F 91 °F 102 °F (2007)
Min Temperature 71 °F 71 °F 59 °F (1956)
Cooling Degree Days 18 16  
Month to date cooling degree days 135 128  
Year to date cooling degree days 1424 1258  
Since 1 June cooling degree days 1027 989  
Growing Degree Days 32 (Base 50)    
Moisture  
Dew Point 71 °F    
Average Humidity 71    
Maximum Humidity 93    
Minimum Humidity 49    
Precipitation  
Precipitation 0.00 in 0.14 in 3.00 in (1978)
Month to date precipitation 0.10 1.15  
Year to date precipitation 31.38 34.47  
Sea Level Pressure  
Sea Level Pressure 29.93 in    
Wind  
Wind Speed 4 mph (WNW)    
Max Wind Speed 14 mph    
Max Gust Speed 19 mph    
Visibility 10 miles    
Events      
T = Trace of Precipitation, MM = Missing Value Source: NWS Daily Summary

Daily Weather History Graph

Daily Weather History Graph

Search for Another Location

Airport or City:

Astronomy

Aug. 08, 2019 Rise Set
Actual Time 6:04 AM CDT 7:40 PM CDT
Civil Twilight 5:38 AM CDT 8:06 PM CDT
Nautical Twilight 5:06 AM CDT 8:38 PM CDT
Astronomical Twilight 4:32 AM CDT 9:12 PM CDT
Moon 2:15 PM CDT (8/8) 12:24 AM CDT (8/8)
Length of Visible Light 14h 28m
Length of Day
13h 35m
First Quarter, 60% of the Moon is Illuminated
Aug 8
First Quarter
Aug 15
Full
Aug 23
Last Quarter
Aug 30
New
Sep 5
First Quarter

Hourly Weather History & Observations

Time (CDT) Temp. Heat Index Dew Point Humidity Pressure Visibility Wind Dir Wind Speed Gust Speed Precip Events Conditions
12:53 AM 73.9 °F - 69.1 °F 85% 29.91 in 10.0 mi NW 3.5 mph - N/A   Clear
1:53 AM 73.9 °F - 68.0 °F 82% 29.91 in 10.0 mi NE 3.5 mph - N/A   Clear
2:53 AM 72.0 °F - 69.1 °F 91% 29.91 in 10.0 mi Calm Calm - N/A   Clear
3:53 AM 72.0 °F - 69.1 °F 91% 29.91 in 10.0 mi Calm Calm - N/A   Clear
4:53 AM 72.0 °F - 69.1 °F 91% 29.92 in 10.0 mi Calm Calm - N/A   Clear
5:53 AM 72.0 °F - 69.1 °F 91% 29.93 in 10.0 mi Calm Calm - N/A   Clear
6:53 AM 73.9 °F - 69.1 °F 85% 29.94 in 9.0 mi Calm Calm - N/A   Clear
7:53 AM 79.0 °F - 69.1 °F 72% 29.95 in 10.0 mi Calm Calm - N/A   Clear
8:53 AM 84.0 °F 88.4 °F 70.0 °F 63% 29.94 in 10.0 mi WNW 3.5 mph - N/A   Clear
9:53 AM 89.1 °F 96.0 °F 72.0 °F 57% 29.96 in 10.0 mi WNW 6.9 mph - N/A   Clear
10:53 AM 91.0 °F 98.2 °F 72.0 °F 53% 29.96 in 10.0 mi WNW 12.7 mph 17.3 mph N/A   Scattered Clouds
11:53 AM 93.0 °F 100.7 °F 72.0 °F 50% 29.95 in 10.0 mi WNW 9.2 mph - N/A   Partly Cloudy
12:53 PM 93.0 °F 100.1 °F 71.1 °F 49% 29.94 in 10.0 mi NW 11.5 mph - N/A   Clear
1:53 PM 91.9 °F 100.7 °F 73.0 °F 54% 29.93 in 10.0 mi NNW 9.2 mph 17.3 mph N/A   Clear
2:53 PM 90.0 °F 99.0 °F 73.9 °F 59% 29.92 in 10.0 mi Variable 5.8 mph - N/A   Partly Cloudy
3:53 PM 88.0 °F 94.7 °F 72.0 °F 59% 29.91 in 10.0 mi NNW 6.9 mph - N/A   Clear
4:53 PM 89.1 °F 94.1 °F 70.0 °F 53% 29.93 in 10.0 mi NW 5.8 mph - N/A   Clear
5:53 PM 88.0 °F 93.8 °F 71.1 °F 57% 29.92 in 10.0 mi West 4.6 mph - N/A   Clear
6:53 PM 86.0 °F 91.5 °F 71.1 °F 61% 29.92 in 10.0 mi Calm Calm - N/A   Clear
7:53 PM 82.9 °F 88.8 °F 73.0 °F 72% 29.93 in 10.0 mi SSW 4.6 mph - N/A   Clear
8:53 PM 81.0 °F 86.2 °F 73.9 °F 79% 29.93 in 10.0 mi WSW 3.5 mph - N/A   Clear
9:53 PM 79.0 °F - 75.0 °F 88% 29.93 in 10.0 mi Calm Calm - N/A   Clear
10:53 PM 77.0 °F - 73.9 °F 90% 29.95 in 9.0 mi Calm Calm - N/A   Clear
11:53 PM 77.0 °F - 73.0 °F 88% 29.96 in 10.0 mi Calm Calm - N/A   Clear